SCP
0 0 0 0 0 0 0 0 0 0 0 0 0 0 0 0 0 0 0 0 0 0
0 0 0 0 0 0 0 0 0 0 0 0 0 0 0 0 0 0 0 0 0 0
0 0 0 0 0 0 0 0 0 0 0 0 0 0 0 0 0 0 0 0 0 0
0 0 0 0 0 0 0 0 0 0 0 0 0 0 0 0 0 0 0 0 0 0
-0 0 0 0 0 0 0 0 0 0 0 0 0 0 0 0 0 0 0 0 0 0
0 0 0 0 0 0 0 0 0 0 0 0 0 0 0 0 0 0 0 0 0 0
0 0 0 0 0 0 0 0 0 0 0 0 0 0 0 0 0 0 0 0 0 0
0 -0 0 0 0 0 0 0 0 0 0 0 0 0 0 0 0 0 0 0 0 0
-0 -0 0 0 0 0 0 0 0 0 0 0 0 0 0 0 0 0 0 -0 0 0
-0 -0 -0 0 0 0 0 0 0 0 0 0 0 0 0 0 0 0 0 0 0 0
-0 -0 -0 0 0 0 0 0 0 0 0 0 0 0 0 0 0 0 0 0 0 0
-0 -0 -0 0 0 0 0 0 0 0 0 0 0 0 0 0 0 0 0 0 -0 0
-0 -0 -0 0 0 0 0 0 0 0 0 0 0 0 0 0 0 0 0 0 0 0
-0 -0 -0 0 0 0 0 0 0 -0 -0 0 0 -0 -0 0 0 0 0 0 0 0
Wind_Speed_500mb
66 70 71 71 67 64 62 58 55 54 55 58 58 59 63 64 80 81 75 70 69 80
64 67 68 65 62 58 53 52 51 52 56 60 61 60 63 69 74 79 87 87 79 83
65 67 64 60 54 48 47 49 52 56 59 59 63 64 67 71 72 66 72 84 90 86
68 67 61 56 49 47 48 50 56 60 64 64 68 70 72 75 73 67 73 77 75 94
70 67 59 54 48 46 50 54 61 64 67 67 70 71 73 76 75 71 70 68 74 67
67 62 59 53 47 49 54 59 60 65 67 70 71 72 70 71 70 68 65 61 67 61
65 60 55 49 46 48 51 56 58 62 70 72 72 68 66 61 62 64 60 54 50 58
61 57 50 48 49 48 50 51 59 70 73 70 65 61 58 51 49 53 54 54 55 57
60 56 49 47 49 47 50 52 58 65 66 65 56 52 44 39 40 40 43 48 48 46
58 56 51 50 45 45 47 49 55 61 59 56 50 44 33 33 33 36 39 37 41 39
55 52 50 47 44 44 45 48 54 55 53 48 42 38 33 25 25 31 29 32 24 41
53 53 50 46 45 43 45 47 51 47 46 47 45 40 31 19 18 22 25 25 31 22
50 50 51 50 47 45 45 47 46 39 36 42 43 33 26 16 18 21 23 21 22 31
48 46 47 48 48 45 41 40 36 30 28 39 30 26 18 7 10 12 13 11 11 15
Wind_Direction_500mb
309 306 306 307 306 305 304 304 304 304 300 297 294 290 285 276 263 261 257 255 252 253
313 311 311 309 307 306 308 311 312 310 307 302 299 296 291 284 276 265 262 260 256 251
321 318 314 310 310 311 312 313 312 313 309 305 301 298 293 288 285 278 269 263 260 257
324 321 315 310 309 311 312 314 312 311 309 304 300 297 293 286 282 274 268 267 266 256
328 325 319 312 310 313 310 313 311 310 310 307 303 300 293 287 282 276 273 265 263 263
330 326 321 315 310 308 310 313 313 311 309 306 303 300 293 287 281 276 273 269 259 256
332 328 324 319 314 314 317 317 316 313 311 309 304 299 295 288 277 270 267 260 256 252
330 325 322 322 317 319 320 319 316 314 316 314 306 299 298 291 279 268 264 262 260 256
329 328 321 315 315 320 320 316 317 319 321 318 310 303 292 279 274 268 263 256 251 247
335 330 327 322 323 322 320 321 318 324 325 323 316 311 291 276 265 263 262 260 255 254
340 333 331 327 325 323 324 322 324 327 328 326 326 327 319 290 269 260 262 258 269 248
342 336 332 328 326 324 323 320 323 328 329 331 328 318 309 285 274 258 251 263 254 245
345 341 338 334 330 322 320 319 320 323 321 328 334 333 318 293 268 257 250 272 251 229
344 343 339 338 335 330 323 319 321 318 323 322 339 341 350 303 272 254 269 270 226 186
Wind_Speed_850mb
66 70 71 71 67 64 62 58 55 54 55 58 58 59 63 64 80 81 75 70 69 80
64 67 68 65 62 58 53 52 51 52 56 60 61 60 63 69 74 79 87 87 79 83
65 67 64 60 54 48 47 49 52 56 59 59 63 64 67 71 72 66 72 84 90 86
68 67 61 56 49 47 48 50 56 60 64 64 68 70 72 75 73 67 73 77 75 94
70 67 59 54 48 46 50 54 61 64 67 67 70 71 73 76 75 71 70 68 74 67
67 62 59 53 47 49 54 59 60 65 67 70 71 72 70 71 70 68 65 61 67 61
65 60 55 49 46 48 51 56 58 62 70 72 72 68 66 61 62 64 60 54 50 58
61 57 50 48 49 48 50 51 59 70 73 70 65 61 58 51 49 53 54 54 55 57
60 56 49 47 49 47 50 52 58 65 66 65 56 52 44 39 40 40 43 48 48 46
58 56 51 50 45 45 47 49 55 61 59 56 50 44 33 33 33 36 39 37 41 39
55 52 50 47 44 44 45 48 54 55 53 48 42 38 33 25 25 31 29 32 24 41
53 53 50 46 45 43 45 47 51 47 46 47 45 40 31 19 18 22 25 25 31 22
50 50 51 50 47 45 45 47 46 39 36 42 43 33 26 16 18 21 23 21 22 31
48 46 47 48 48 45 41 40 36 30 28 39 30 26 18 7 10 12 13 11 11 15
Wind_Direction_850mb
309 306 306 307 306 305 304 304 304 304 300 297 294 290 285 276 263 261 257 255 252 253
313 311 311 309 307 306 308 311 312 310 307 302 299 296 291 284 276 265 262 260 256 251
321 318 314 310 310 311 312 313 312 313 309 305 301 298 293 288 285 278 269 263 260 257
324 321 315 310 309 311 312 314 312 311 309 304 300 297 293 286 282 274 268 267 266 256
328 325 319 312 310 313 310 313 311 310 310 307 303 300 293 287 282 276 273 265 263 263
330 326 321 315 310 308 310 313 313 311 309 306 303 300 293 287 281 276 273 269 259 256
332 328 324 319 314 314 317 317 316 313 311 309 304 299 295 288 277 270 267 260 256 252
330 325 322 322 317 319 320 319 316 314 316 314 306 299 298 291 279 268 264 262 260 256
329 328 321 315 315 320 320 316 317 319 321 318 310 303 292 279 274 268 263 256 251 247
335 330 327 322 323 322 320 321 318 324 325 323 316 311 291 276 265 263 262 260 255 254
340 333 331 327 325 323 324 322 324 327 328 326 326 327 319 290 269 260 262 258 269 248
342 336 332 328 326 324 323 320 323 328 329 331 328 318 309 285 274 258 251 263 254 245
345 341 338 334 330 322 320 319 320 323 321 328 334 333 318 293 268 257 250 272 251 229
344 343 339 338 335 330 323 319 321 318 323 322 339 341 350 303 272 254 269 270 226 186